Time,TemperatureF,DewpointF,PressureIn,WindDirection,WindDirectionDegrees,WindSpeedMPH,WindSpeedGustMPH,Humidity,HourlyPrecipIn,Conditions,Clouds,dailyrainin,SoftwareType,DateUTC
2013-02-21 00:01:00,21.0,20.0,30.10,NW,322,0.0,-999.0,94,-99.99,,,-99.99,,2013-02-21 08:01:00,
2013-02-21 00:11:00,21.0,19.0,30.10,NW,322,0.0,-999.0,93,-99.99,,,-99.99,,2013-02-21 08:11:00,
2013-02-21 00:21:00,21.0,19.0,30.10,NW,322,0.0,-999.0,93,-99.99,,,-99.99,,2013-02-21 08:21:00,
2013-02-21 00:31:00,20.0,18.0,30.11,NW,322,0.0,-999.0,93,-99.99,,,-99.99,,2013-02-21 08:31:00,
2013-02-21 00:41:00,20.0,18.0,30.11,NW,322,0.0,-999.0,93,-99.99,,,-99.99,,2013-02-21 08:41:00,
2013-02-21 00:51:00,20.0,19.0,30.10,NW,322,0.0,-999.0,94,-99.99,,,-99.99,,2013-02-21 08:51:00,
2013-02-21 01:01:00,19.0,18.0,30.10,NW,322,0.0,-999.0,94,-99.99,,,-99.99,,2013-02-21 09:01:00,
2013-02-21 01:11:00,19.0,18.0,30.10,NW,322,0.0,-999.0,94,-99.99,,,-99.99,,2013-02-21 09:11:00,
2013-02-21 01:22:00,19.0,18.0,30.10,NW,322,0.0,-999.0,94,-99.99,,,-99.99,,2013-02-21 09:22:00,
2013-02-21 01:31:00,19.0,18.0,30.11,NW,322,0.0,-999.0,94,-99.99,,,-99.99,,2013-02-21 09:31:00,
2013-02-21 01:41:00,19.0,18.0,30.11,NW,322,0.0,-999.0,94,-99.99,,,-99.99,,2013-02-21 09:41:00,
2013-02-21 01:51:00,20.0,19.0,30.11,NW,322,0.0,-999.0,94,-99.99,,,-99.99,,2013-02-21 09:51:00,
2013-02-21 02:01:00,20.0,19.0,30.11,NW,322,0.0,-999.0,94,-99.99,,,-99.99,,2013-02-21 10:01:00,
2013-02-21 02:11:00,20.0,19.0,30.11,NW,322,0.0,-999.0,94,-99.99,,,-99.99,,2013-02-21 10:11:00,
2013-02-21 02:21:00,19.0,17.0,30.11,NW,322,0.0,-999.0,93,-99.99,,,-99.99,,2013-02-21 10:21:00,
2013-02-21 02:31:00,19.0,18.0,30.12,NW,322,0.0,-999.0,94,-99.99,,,-99.99,,2013-02-21 10:31:00,
2013-02-21 02:41:00,19.0,18.0,30.12,NW,322,0.0,-999.0,94,-99.99,,,-99.99,,2013-02-21 10:41:00,
2013-02-21 02:51:00,20.0,19.0,30.12,NW,322,0.0,-999.0,94,-99.99,,,-99.99,,2013-02-21 10:51:00,
2013-02-21 03:00:00,20.0,19.0,30.12,NW,322,0.0,-999.0,94,-99.99,,,-99.99,,2013-02-21 11:00:00,
2013-02-21 03:11:00,20.0,19.0,30.12,NW,322,0.0,-999.0,94,-99.99,,,-99.99,,2013-02-21 11:11:00,
2013-02-21 03:21:00,20.0,19.0,30.12,NW,322,0.0,-999.0,94,-99.99,,,-99.99,,2013-02-21 11:21:00,
2013-02-21 03:31:00,20.0,19.0,30.13,NW,322,0.0,-999.0,94,-99.99,,,-99.99,,2013-02-21 11:31:00,
2013-02-21 03:41:00,20.0,19.0,30.13,NW,322,0.0,-999.0,94,-99.99,,,-99.99,,2013-02-21 11:41:00,
2013-02-21 03:51:00,21.0,20.0,30.13,NW,322,0.0,-999.0,94,-99.99,,,-99.99,,2013-02-21 11:51:00,
2013-02-21 04:01:00,22.0,21.0,30.13,NW,322,0.0,-999.0,94,-99.99,,,-99.99,,2013-02-21 12:01:00,
2013-02-21 04:11:00,22.0,21.0,30.13,NW,322,0.0,-999.0,94,-99.99,,,-99.99,,2013-02-21 12:11:00,
2013-02-21 04:21:00,22.0,21.0,30.13,NW,322,0.0,-999.0,95,-99.99,,,-99.99,,2013-02-21 12:21:00,
2013-02-21 04:32:00,23.0,22.0,30.13,NW,322,0.0,-999.0,94,-99.99,,,-99.99,,2013-02-21 12:32:00,
2013-02-21 04:42:00,22.0,21.0,30.14,NW,322,0.0,-999.0,94,-99.99,,,-99.99,,2013-02-21 12:42:00,
2013-02-21 04:52:00,22.0,21.0,30.14,NW,322,0.0,-999.0,94,-99.99,,,-99.99,,2013-02-21 12:52:00,
2013-02-21 05:01:00,23.0,22.0,30.15,NW,322,0.0,-999.0,94,-99.99,,,-99.99,,2013-02-21 13:01:00,
2013-02-21 05:12:00,23.0,22.0,30.15,NW,322,0.0,-999.0,94,-99.99,,,-99.99,,2013-02-21 13:12:00,
2013-02-21 05:22:00,23.0,22.0,30.15,NW,322,0.0,-999.0,94,-99.99,,,-99.99,,2013-02-21 13:22:00,
2013-02-21 05:31:00,23.0,22.0,30.15,NW,322,0.0,-999.0,94,-99.99,,,-99.99,,2013-02-21 13:31:00,
2013-02-21 05:41:00,23.0,22.0,30.15,NW,322,0.0,-999.0,94,-99.99,,,-99.99,,2013-02-21 13:41:00,
2013-02-21 05:51:00,22.0,21.0,30.16,NW,322,0.0,-999.0,94,-99.99,,,-99.99,,2013-02-21 13:51:00,
2013-02-21 06:02:00,22.0,21.0,30.16,NW,322,0.0,-999.0,94,-99.99,,,-99.99,,2013-02-21 14:02:00,
2013-02-21 06:11:00,22.0,21.0,30.16,NW,322,0.0,-999.0,94,-99.99,,,-99.99,,2013-02-21 14:11:00,
2013-02-21 06:21:00,23.0,22.0,30.16,NW,322,0.0,-999.0,94,-99.99,,,-99.99,,2013-02-21 14:21:00,
2013-02-21 06:31:00,23.0,22.0,30.16,NW,322,0.0,-999.0,94,-99.99,,,-99.99,,2013-02-21 14:31:00,
2013-02-21 06:41:00,23.0,22.0,30.16,NW,322,0.0,-999.0,94,-99.99,,,-99.99,,2013-02-21 14:41:00,
2013-02-21 06:52:00,24.0,23.0,30.16,NW,322,0.0,-999.0,94,-99.99,,,-99.99,,2013-02-21 14:52:00,
2013-02-21 07:01:00,24.0,23.0,30.16,NW,322,0.0,-999.0,94,-99.99,,,-99.99,,2013-02-21 15:01:00,
2013-02-21 07:12:00,24.0,23.0,30.16,NW,322,0.0,-999.0,94,-99.99,,,-99.99,,2013-02-21 15:12:00,
2013-02-21 07:21:00,23.0,22.0,30.16,NW,322,0.0,-999.0,94,-99.99,,,-99.99,,2013-02-21 15:21:00,
2013-02-21 07:31:00,24.0,23.0,30.16,NW,322,0.0,-999.0,94,-99.99,,,-99.99,,2013-02-21 15:31:00,
2013-02-21 07:41:00,24.0,23.0,30.16,NW,322,0.0,-999.0,94,-99.99,,,-99.99,,2013-02-21 15:41:00,
2013-02-21 07:51:00,25.0,24.0,30.16,NW,322,0.0,-999.0,95,-99.99,,,-99.99,,2013-02-21 15:51:00,
2013-02-21 08:01:00,26.0,25.0,30.17,NW,322,0.0,-999.0,94,-99.99,,,-99.99,,2013-02-21 16:01:00,
2013-02-21 08:12:00,26.0,25.0,30.17,NW,322,0.0,-999.0,94,-99.99,,,-99.99,,2013-02-21 16:12:00,
2013-02-21 08:21:00,26.0,25.0,30.17,NW,322,0.0,-999.0,94,-99.99,,,-99.99,,2013-02-21 16:21:00,
2013-02-21 08:31:00,27.0,25.0,30.17,NW,322,0.0,-999.0,91,-99.99,,,-99.99,,2013-02-21 16:31:00,
2013-02-21 08:42:00,27.0,25.0,30.16,NW,322,0.0,-999.0,92,-99.99,,,-99.99,,2013-02-21 16:42:00,
2013-02-21 08:52:00,27.0,25.0,30.16,NW,322,0.0,-999.0,92,-99.99,,,-99.99,,2013-02-21 16:52:00,
2013-02-21 09:01:00,27.0,25.0,30.16,East,94,1.0,-999.0,92,-99.99,,,-99.99,,2013-02-21 17:01:00,
2013-02-21 09:11:00,27.0,25.0,30.16,ESE,123,0.0,-999.0,91,-99.99,,,-99.99,,2013-02-21 17:11:00,
2013-02-21 09:21:00,27.0,25.0,30.16,ESE,123,0.0,-999.0,91,-99.99,,,-99.99,,2013-02-21 17:21:00,
2013-02-21 09:32:00,28.0,25.0,30.16,ESE,123,0.0,-999.0,90,-99.99,,,-99.99,,2013-02-21 17:32:00,
2013-02-21 09:42:00,28.0,25.0,30.16,ESE,123,0.0,-999.0,90,-99.99,,,-99.99,,2013-02-21 17:42:00,
2013-02-21 09:52:00,29.0,26.0,30.16,ESE,123,0.0,-999.0,88,-99.99,,,-99.99,,2013-02-21 17:52:00,
2013-02-21 10:01:00,30.0,26.0,30.17,ESE,122,0.0,-999.0,85,-99.99,,,-99.99,,2013-02-21 18:01:00,
2013-02-21 10:11:00,30.0,26.0,30.17,ESE,122,0.0,-999.0,85,-99.99,,,-99.99,,2013-02-21 18:11:00,
2013-02-21 10:21:00,31.0,26.0,30.17,ESE,110,0.0,-999.0,83,-99.99,,,-99.99,,2013-02-21 18:21:00,
2013-02-21 10:31:00,31.0,26.0,30.16,SSE,147,0.0,-999.0,81,-99.99,,,-99.99,,2013-02-21 18:31:00,
2013-02-21 10:42:00,31.0,26.0,30.16,SSE,147,0.0,-999.0,81,-99.99,,,-99.99,,2013-02-21 18:42:00,
2013-02-21 10:51:00,31.0,26.0,30.16,SSE,147,0.0,-999.0,81,-99.99,,,-99.99,,2013-02-21 18:51:00,
2013-02-21 11:01:00,32.0,26.0,30.17,SSE,150,1.0,-999.0,78,-99.99,,,-99.99,,2013-02-21 19:01:00,
2013-02-21 11:11:00,32.0,26.0,30.17,SSE,150,1.0,-999.0,78,-99.99,,,-99.99,,2013-02-21 19:11:00,
2013-02-21 11:21:00,33.0,26.0,30.16,SSE,153,1.0,-999.0,76,-99.99,,,-99.99,,2013-02-21 19:21:00,
2013-02-21 11:31:00,33.0,25.0,30.16,South,169,1.0,-999.0,73,-99.99,,,-99.99,,2013-02-21 19:31:00,
2013-02-21 11:41:00,33.0,25.0,30.16,South,169,1.0,-999.0,73,-99.99,,,-99.99,,2013-02-21 19:41:00,
2013-02-21 11:51:00,34.0,26.0,30.16,SSE,157,3.0,-999.0,72,-99.99,,,-99.99,,2013-02-21 19:51:00,
2013-02-21 12:01:00,34.0,26.0,30.16,South,188,5.0,-999.0,72,-99.99,,,-99.99,,2013-02-21 20:01:00,
2013-02-21 12:11:00,34.0,26.0,30.16,SSE,167,5.0,-999.0,72,-99.99,,,-99.99,,2013-02-21 20:11:00,
2013-02-21 12:21:00,34.0,26.0,30.16,SSE,167,5.0,-999.0,72,-99.99,,,-99.99,,2013-02-21 20:21:00,
2013-02-21 12:31:00,36.0,28.0,30.15,South,176,4.0,-999.0,72,-99.99,,,-99.99,,2013-02-21 20:31:00,
2013-02-21 12:41:00,36.0,28.0,30.15,South,176,4.0,-999.0,72,-99.99,,,-99.99,,2013-02-21 20:41:00,
2013-02-21 12:52:00,35.0,26.0,30.14,SSE,161,3.0,-999.0,70,-99.99,,,-99.99,,2013-02-21 20:52:00,
2013-02-21 13:02:00,35.0,27.0,30.14,South,173,3.0,-999.0,72,-99.99,,,-99.99,,2013-02-21 21:02:00,
2013-02-21 13:11:00,35.0,26.0,30.13,SSE,150,4.0,-999.0,70,-99.99,,,-99.99,,2013-02-21 21:11:00,
2013-02-21 13:21:00,35.0,26.0,30.13,SSE,150,4.0,-999.0,70,-99.99,,,-99.99,,2013-02-21 21:21:00,
2013-02-21 13:31:00,35.0,27.0,30.12,SSE,167,3.0,-999.0,72,-99.99,,,-99.99,,2013-02-21 21:31:00,
2013-02-21 13:41:00,34.0,26.0,30.11,SSE,157,2.0,-999.0,73,-99.99,,,-99.99,,2013-02-21 21:41:00,
2013-02-21 13:51:00,34.0,26.0,30.11,SSE,157,2.0,-999.0,73,-99.99,,,-99.99,,2013-02-21 21:51:00,
2013-02-21 14:01:00,34.0,27.0,30.11,South,170,1.0,-999.0,74,-99.99,,,-99.99,,2013-02-21 22:01:00,
2013-02-21 14:11:00,34.0,27.0,30.11,South,170,1.0,-999.0,74,-99.99,,,-99.99,,2013-02-21 22:11:00,
2013-02-21 14:21:00,34.0,27.0,30.11,South,170,1.0,-999.0,74,-99.99,,,-99.99,,2013-02-21 22:21:00,
2013-02-21 14:31:00,33.0,28.0,30.11,South,182,7.0,-999.0,83,-99.99,,,-99.99,,2013-02-21 22:31:00,
2013-02-21 14:42:00,33.0,28.0,30.11,South,182,7.0,-999.0,83,-99.99,,,-99.99,,2013-02-21 22:42:00,
2013-02-21 14:52:00,32.0,29.0,30.11,SSW,203,5.0,-999.0,90,-99.99,,,-99.99,,2013-02-21 22:52:00,
2013-02-21 15:01:00,31.0,29.0,30.11,SSW,205,4.0,-999.0,93,-99.99,,,-99.99,,2013-02-21 23:01:00,
2013-02-21 15:11:00,31.0,29.0,30.11,SSW,205,4.0,-999.0,93,-99.99,,,-99.99,,2013-02-21 23:11:00,
2013-02-21 15:21:00,31.0,29.0,30.11,SW,218,3.0,-999.0,93,-99.99,,,-99.99,,2013-02-21 23:21:00,
2013-02-21 15:31:00,31.0,29.0,30.11,SW,217,2.0,-999.0,94,-99.99,,,-99.99,,2013-02-21 23:31:00,
2013-02-21 15:41:00,31.0,29.0,30.11,SW,217,2.0,-999.0,94,-99.99,,,-99.99,,2013-02-21 23:41:00,
2013-02-21 15:52:00,31.0,29.0,30.12,SSW,211,2.0,-999.0,94,-99.99,,,-99.99,,2013-02-21 23:52:00,
2013-02-21 16:01:00,31.0,29.0,30.12,SSW,213,0.0,-999.0,94,-99.99,,,-99.99,,2013-02-22 00:01:00,
2013-02-21 16:11:00,31.0,29.0,30.12,SSW,213,0.0,-999.0,94,-99.99,,,-99.99,,2013-02-22 00:11:00,
2013-02-21 16:21:00,31.0,30.0,30.12,SSW,213,0.0,-999.0,95,-99.99,,,-99.99,,2013-02-22 00:21:00,
2013-02-21 16:31:00,31.0,30.0,30.12,SSW,213,0.0,-999.0,95,-99.99,,,-99.99,,2013-02-22 00:31:00,
2013-02-21 16:41:00,31.0,30.0,30.12,SSW,213,0.0,-999.0,95,-99.99,,,-99.99,,2013-02-22 00:41:00,
2013-02-21 16:51:00,31.0,30.0,30.13,SSW,213,0.0,-999.0,95,-99.99,,,-99.99,,2013-02-22 00:51:00,
2013-02-21 17:01:00,31.0,30.0,30.13,SSW,213,0.0,-999.0,95,-99.99,,,-99.99,,2013-02-22 01:01:00,
2013-02-21 17:11:00,31.0,30.0,30.13,SSW,213,0.0,-999.0,95,-99.99,,,-99.99,,2013-02-22 01:11:00,
2013-02-21 17:21:00,31.0,30.0,30.13,SSW,213,0.0,-999.0,95,-99.99,,,-99.99,,2013-02-22 01:21:00,
2013-02-21 17:32:00,31.0,30.0,30.13,WNW,302,0.0,-999.0,95,-99.99,,,-99.99,,2013-02-22 01:32:00,
2013-02-21 17:42:00,31.0,30.0,30.13,WNW,302,0.0,-999.0,95,-99.99,,,-99.99,,2013-02-22 01:42:00,
2013-02-21 17:51:00,31.0,30.0,30.13,West,265,0.0,-999.0,95,-99.99,,,-99.99,,2013-02-22 01:51:00,
2013-02-21 18:01:00,31.0,30.0,30.14,West,265,0.0,-999.0,95,-99.99,,,-99.99,,2013-02-22 02:01:00,
2013-02-21 18:11:00,31.0,30.0,30.14,West,265,0.0,-999.0,95,-99.99,,,-99.99,,2013-02-22 02:11:00,
2013-02-21 18:21:00,31.0,30.0,30.14,WSW,256,0.0,-999.0,95,-99.99,,,-99.99,,2013-02-22 02:21:00,
2013-02-21 18:31:00,31.0,30.0,30.14,WNW,282,0.0,-999.0,95,-99.99,,,-99.99,,2013-02-22 02:31:00,
2013-02-21 18:42:00,31.0,30.0,30.14,WNW,282,0.0,-999.0,95,-99.99,,,-99.99,,2013-02-22 02:42:00,
2013-02-21 18:52:00,31.0,30.0,30.14,WNW,282,0.0,-999.0,95,-99.99,,,-99.99,,2013-02-22 02:52:00,
2013-02-21 19:01:00,31.0,30.0,30.15,WNW,282,0.0,-999.0,95,-99.99,,,-99.99,,2013-02-22 03:01:00,
2013-02-21 19:11:00,31.0,30.0,30.15,WNW,282,0.0,-999.0,95,-99.99,,,-99.99,,2013-02-22 03:11:00,
2013-02-21 19:21:00,31.0,30.0,30.15,WNW,282,0.0,-999.0,95,-99.99,,,-99.99,,2013-02-22 03:21:00,
2013-02-21 19:31:00,31.0,30.0,30.15,WNW,282,0.0,-999.0,95,-99.99,,,-99.99,,2013-02-22 03:31:00,
2013-02-21 19:41:00,31.0,30.0,30.15,WNW,282,0.0,-999.0,95,-99.99,,,-99.99,,2013-02-22 03:41:00,
2013-02-21 19:51:00,31.0,30.0,30.16,WNW,282,0.0,-999.0,95,-99.99,,,-99.99,,2013-02-22 03:51:00,
2013-02-21 20:01:00,31.0,30.0,30.16,WNW,282,0.0,-999.0,95,-99.99,,,-99.99,,2013-02-22 04:01:00,
2013-02-21 20:11:00,31.0,30.0,30.16,WNW,282,0.0,-999.0,95,-99.99,,,-99.99,,2013-02-22 04:11:00,
2013-02-21 20:21:00,31.0,30.0,30.16,WNW,282,0.0,-999.0,95,-99.99,,,-99.99,,2013-02-22 04:21:00,
2013-02-21 20:32:00,31.0,30.0,30.16,WNW,282,0.0,-999.0,95,-99.99,,,-99.99,,2013-02-22 04:32:00,
2013-02-21 20:42:00,31.0,30.0,30.16,WNW,282,0.0,-999.0,95,-99.99,,,-99.99,,2013-02-22 04:42:00,
2013-02-21 20:51:00,31.0,30.0,30.16,WNW,282,0.0,-999.0,95,-99.99,,,-99.99,,2013-02-22 04:51:00,
2013-02-21 21:01:00,31.0,30.0,30.16,WNW,282,0.0,-999.0,95,-99.99,,,-99.99,,2013-02-22 05:01:00,
2013-02-21 21:11:00,31.0,30.0,30.16,WNW,282,0.0,-999.0,95,-99.99,,,-99.99,,2013-02-22 05:11:00,
2013-02-21 21:22:00,31.0,30.0,30.16,WNW,282,0.0,-999.0,95,-99.99,,,-99.99,,2013-02-22 05:22:00,
2013-02-21 21:32:00,31.0,30.0,30.15,WNW,282,0.0,-999.0,95,-99.99,,,-99.99,,2013-02-22 05:32:00,
2013-02-21 21:42:00,31.0,30.0,30.15,WNW,282,0.0,-999.0,95,-99.99,,,-99.99,,2013-02-22 05:42:00,
2013-02-21 21:52:00,30.0,29.0,30.15,WNW,282,0.0,-999.0,95,-99.99,,,-99.99,,2013-02-22 05:52:00,
2013-02-21 22:01:00,30.0,29.0,30.15,WNW,282,0.0,-999.0,96,-99.99,,,-99.99,,2013-02-22 06:01:00,
2013-02-21 22:11:00,30.0,29.0,30.15,WNW,282,0.0,-999.0,96,-99.99,,,-99.99,,2013-02-22 06:11:00,
2013-02-21 22:21:00,30.0,29.0,30.15,WNW,282,0.0,-999.0,95,-99.99,,,-99.99,,2013-02-22 06:21:00,
2013-02-21 22:31:00,30.0,29.0,30.16,WNW,282,0.0,-999.0,96,-99.99,,,-99.99,,2013-02-22 06:31:00,
2013-02-21 22:42:00,30.0,29.0,30.16,WNW,282,0.0,-999.0,96,-99.99,,,-99.99,,2013-02-22 06:42:00,
2013-02-21 22:51:00,30.0,29.0,30.15,WNW,282,0.0,-999.0,96,-99.99,,,-99.99,,2013-02-22 06:51:00,
2013-02-21 23:01:00,30.0,29.0,30.16,WNW,282,0.0,-999.0,96,-99.99,,,-99.99,,2013-02-22 07:01:00,
2013-02-21 23:11:00,30.0,29.0,30.16,WNW,282,0.0,-999.0,95,-99.99,,,-99.99,,2013-02-22 07:11:00,
2013-02-21 23:21:00,30.0,29.0,30.16,WNW,282,0.0,-999.0,95,-99.99,,,-99.99,,2013-02-22 07:21:00,
2013-02-21 23:31:00,30.0,29.0,30.16,WNW,282,0.0,-999.0,95,-99.99,,,-99.99,,2013-02-22 07:31:00,
2013-02-21 23:42:00,30.0,29.0,30.16,WNW,282,0.0,-999.0,95,-99.99,,,-99.99,,2013-02-22 07:42:00,
2013-02-21 23:51:00,30.0,29.0,30.16,WNW,282,0.0,-999.0,95,-99.99,,,-99.99,,2013-02-22 07:51:00,